Location: Copeville
(33.0796°N, 96.4155°W)
Time: 02:17:44
(UTC+00:00)

Oscar 11 - Pass Details

Date: 04 April 2023
Orbit: 609 x 619 km, 97.7° (Epoch: 07 June)

Event Time Altitude Azimuth Distance (km) Brightness Sun altitude
Rises 10:08:48 0° 24° (NNE) 2,877 11.2 -25.1°
Reaches altitude 10° 10:11:13 10° 35° (NE) 1,970 10.4 -24.6°
Maximum altitude 10:14:59 30° 97° (E) 1,105 8.8 -23.9°
Drops below altitude 10° 10:18:45 10° 159° (SSE) 1,964 9.6 -23.2°
Enters shadow 10:19:31 - 164° (SSE) 2,247 9.9 -23.1°
